Regional Weather Roundup
Issued by NWS

Home | Current Version | Previous Version | Graphics & Text | Print | Product List | Glossary On
Versions: 1 2 3 4 5 6 7 8 9 10 11 12 13 14 15 16 17 18 19 20 21 22 23 24 25 26 27 28 29 30 31 32 33 34 35 36 37 38 39 40 41 42 43 44 45 46 47 48 49 50
000
ASUS43 KOAX 010302
RWRNE

WEATHER ROUNDUP FOR NEBRASKA
NATIONAL WEATHER SERVICE OMAHA NE
1000 PM CDT MON AUG 31 2015

NOTES: SATELLITE DATA IS BEING USED TO AUGMENT CLOUD COVER ABOVE
       12000 FEET.
       "FAIR" INDICATES FEW OR NO CLOUDS BELOW 12,000 FEET WITH NO
       SIGNIFICANT WEATHER AND/OR OBSTRUCTIONS TO VISIBILITY.

  * THESE STATIONS DO NOT REPORT WEATHER SUCH AS RAIN...SNOW OR FOG.

NEZ001>004-019>022-054>056-010400-
NEBRASKA PANHANDLE

CITY           SKY/WX    TMP DP  RH WIND       PRES   REMARKS
SCOTTSBLUFF    CLOUDY    76  49  38 VRB5      30.04F
ALLIANCE       CLOUDY    73  53  49 S12       30.02F
CHADRON        CLOUDY    71  56  58 W5        29.97R
KIMBALL        LGT RAIN  65  58  79 N3        30.11R
SIDNEY         CLOUDY    71  54  54 NW13      30.09R
$$

NEZ057>060-069>072-079>082-010400-
SOUTHWEST NEBRASKA

CITY           SKY/WX    TMP DP  RH WIND       PRES   REMARKS
NORTH PLATTE   MOCLDY    76  65  68 NE9       29.94R
IMPERIAL       CLOUDY    77  60  55 NE8       29.94R
LEXINGTON      PTCLDY    73  67  79 E7        29.92R
MCCOOK         PTCLDY    77  62  59 E7        29.89R
$$

NEZ005>010-023>029-035>040-094-010400-
NORTH CENTRAL NEBRASKA

CITY           SKY/WX    TMP DP  RH WIND       PRES   REMARKS
VALENTINE      CLOUDY    70  60  70 E6        29.95S
AINSWORTH      CLOUDY    71  65  81 CALM      29.97R
BROKEN BOW     PTCLDY    71  67  87 CALM      29.94R
ORD            CLEAR     75  67  76 SE5       29.92R
$$

NEZ041-046>049-061>064-073>077-083>087-010400-
SOUTH CENTRAL NEBRASKA

CITY           SKY/WX    TMP DP  RH WIND       PRES   REMARKS
GRAND ISLAND   CLEAR     74  68  81 E7        29.92R
AURORA         CLEAR     73  70  93 E7        29.92R
HASTINGS       CLEAR     71  66  84 E5        29.92R
KEARNEY *      CLEAR     70  64  83 E6        29.92R
YORK           CLEAR     72  68  88 CALM      29.93R
$$

NEZ011>018-030>034-042>045-010400-
NORTHEAST NEBRASKA

CITY           SKY/WX    TMP DP  RH WIND       PRES   REMARKS
NORFOLK        CLEAR     72  69  90 SE7       29.91R
BLAIR          CLEAR     72  66  81 SE5       29.93S
COLUMBUS *     CLEAR     73  66  78 E3        29.92R
FREMONT        CLEAR     74  67  78 SE6       29.92S
TEKAMAH        FAIR      69  67  93 S6        29.92R
$$

NEZ050>053-065>068-078-088>093-010400-
SOUTHEAST NEBRASKA

CITY           SKY/WX    TMP DP  RH WIND       PRES   REMARKS
LINCOLN        CLEAR     76  68  76 SE3       29.93R
OMAHA EPPLEY   CLEAR     75  69  81 SE6       29.92R
FALLS CITY     CLEAR     75  71  87 SE8       29.93R
PLATTSMOUTH    CLEAR     73  68  84 SE6       29.94R
$$

NEZ044-045-051>053-067-010400-
OMAHA AREA

CITY           SKY/WX    TMP DP  RH WIND       PRES   REMARKS
OMAHA EPPLEY   CLEAR     75  69  81 SE6       29.92R
BLAIR          CLEAR     72  66  81 SE5       29.93S
FREMONT        CLEAR     74  67  78 SE6       29.92S
OFFUTT AFB     CLEAR     74  68  83 E6        29.92R
PLATTSMOUTH    CLEAR     73  68  84 SE6       29.94R
$$




USA.gov is the U.S. government's official web portal to all federal, state and local government web resources and services.